User: anonymous   Login
Location: Unspecified
(0.0000°N, 0.0000°E)
Time: 23:01:48
(UTC+00:00)
Language:

STARLINK-30289 - Orbit

View from above orbital plane
View from above orbital plane
View from above satellite
View from above satellite

Ground track
Ground track

The orbit is defined by the following mean orbital elements,

1 57653U          26145.33236656 +.00000000 +00000-0 +13222-3 0 00004
2 57653  43.0059   9.0074 0001086 263.9051  96.1677 15.27570221    08
Epoch (UTC): 25 May 2026 07:58:36
Eccentricity: 0.0001086
inclination: 43.0059°
perigee height: 482 km
apogee height: 484 km
right ascension of ascending node: 9.0074°
argument of perigee: 263.9051°
revolutions per day: 15.27570221
mean anomaly at epoch: 96.1677°

The dashed part of the orbit path shows where the satellite is in the earth's shadow,  

DLR